DW2144 Weather Reports


Display with metric or nautical units.
time (UTC)temp
F
wind
direction
speed
MPH
gust
MPH
rain 1hr
in
rain 24hr
in
rain mn
in
humidity
%
barometer
mb
20260901203036 70 319 0.0 1.0 0.00 0.00 0.00 58 1013.7
20260901201535 70 319 0.0 1.0 0.00 0.00 0.00 59 1014.0
20260901200035 71 319 0.0 2.0 0.00 0.00 0.00 58 1014.1
20260901194537 71 319 0.0 3.0 0.00 0.00 0.00 57 1014.2
20260901193032 69 319 0.0 1.0 0.00 0.00 0.00 62 1014.1
20260901191536 67 319 0.0 1.0 0.00 0.00 0.00 71 1014.4
20260901190025 65 319 0.0 0.0 0.00 0.00 0.00 76 1014.7
20260901184523 65 319 0.0 0.0 0.00 0.00 0.00 76 1014.7
20260901183036 66 319 0.0 0.0 0.00 0.00 0.00 71 1014.8
20260901181522 66 319 0.0 0.0 0.00 0.00 0.00 70 1014.6
20260901180018 65 319 0.0 0.0 0.00 0.00 0.00 72 1014.5
20260901174517 65 319 0.0 0.0 0.00 0.00 0.00 73 1014.5
20260901173020 64 319 0.0 1.0 0.00 0.00 0.00 74 1014.2
20260901171510 64 319 0.0 1.0 0.00 0.00 0.00 76 1014.1
20260901170009 63 319 0.0 0.0 0.00 0.00 0.00 78 1014.0
20260901164505 62 319 0.0 0.0 0.00 0.00 0.00 80 1014.2
20260901163002 62 319 0.0 0.0 0.00 0.00 0.00 81 1014.2
20260901161625 61 319 0.0 1.0 0.00 0.00 0.00 82 1014.1
20260901160101 60 319 0.0 0.0 0.00 0.00 0.00 84 1014.0
20260901154615 60 319 0.0 0.0 0.00 0.00 0.00 85 1013.9
20260901153052 59 319 0.0 0.0 0.00 0.00 0.00 86 1013.8
20260901151548 58 319 0.0 0.0 0.00 0.00 0.00 86 1013.6
20260901150055 58 319 0.0 0.0 0.00 0.00 0.00 86 1013.6
20260901144543 57 319 0.0 0.0 0.00 0.00 0.00 86 1013.3
20260901143040 57 319 0.0 0.0 0.00 0.00 0.00 86 1013.1
20260901141548 57 319 0.0 0.0 0.00 0.00 0.00 86 1012.9
20260901140039 57 319 0.0 0.0 0.00 0.00 0.00 86 1012.7
20260901134534 57 319 0.0 0.0 0.00 0.00 0.00 86 1012.4
20260901133034 56 319 0.0 0.0 0.00 0.00 0.00 86 1012.3
20260901131532 56 319 0.0 0.0 0.00 0.00 0.00 86 1012.1
20260901130032 56 319 0.0 0.0 0.00 0.00 0.00 86 1012.1
20260901124539 56 319 0.0 0.0 0.00 0.00 0.00 86 1011.9
20260901123031 56 319 0.0 0.0 0.00 0.00 0.00 86 1011.9
20260901121530 56 319 0.0 0.0 0.00 0.00 0.00 86 1011.8
20260901120030 56 319 0.0 0.0 0.00 0.00 0.00 86 1011.8
20260901114528 56 319 0.0 0.0 0.00 0.00 0.00 86 1011.7
20260901113027 56 319 0.0 0.0 0.00 0.00 0.00 86 1011.8
20260901111527 56 319 0.0 0.0 0.00 0.00 0.00 86 1012.1
20260901110025 56 319 0.0 0.0 0.00 0.00 0.00 86 1012.4
20260901104523 55 319 0.0 0.0 0.00 0.00 0.00 86 1012.4
20260901103022 55 319 0.0 0.0 0.00 0.00 0.00 86 1012.3
20260901101520 55 319 0.0 0.0 0.00 0.00 0.00 86 1012.2
20260901100017 54 319 0.0 0.0 0.00 0.00 0.00 86 1012.0
20260901094521 54 319 0.0 0.0 0.00 0.00 0.00 86 1011.8
20260901093015 53 319 0.0 0.0 0.00 0.00 0.00 86 1011.9
20260901091514 53 319 0.0 0.0 0.00 0.00 0.00 86 1011.7
20260901090014 52 319 0.0 0.0 0.00 0.00 0.00 86 1011.9
20260901084512 52 319 0.0 0.0 0.00 0.00 0.00 86 1011.8
20260901083013 52 319 0.0 0.0 0.00 0.00 0.00 86 1011.8
20260901081512 52 319 0.0 0.0 0.00 0.00 0.00 85 1011.8
20260901080010 52 319 0.0 0.0 0.00 0.00 0.00 86 1011.8
20260901074507 53 319 0.0 0.0 0.00 0.00 0.00 85 1011.7
20260901073008 53 319 0.0 0.0 0.00 0.00 0.00 84 1011.5
20260901071505 54 319 0.0 0.0 0.00 0.00 0.00 85 1011.6
20260901070002 54 319 0.0 0.0 0.00 0.00 0.00 84 1011.5
20260901064613 54 319 0.0 0.0 0.00 0.00 0.00 84 1011.7
20260901063100 55 319 0.0 0.0 0.00 0.00 0.00 83 1011.7
20260901061600 55 319 0.0 0.0 0.00 0.00 0.00 83 1011.7
20260901060059 56 319 0.0 0.0 0.00 0.00 0.00 82 1011.5
20260901054559 57 319 0.0 0.0 0.00 0.00 0.00 82 1011.5
20260901053103 57 319 0.0 0.0 0.00 0.00 0.00 82 1011.7
20260901051557 58 319 0.0 0.0 0.00 0.00 0.00 81 1011.8
20260901050057 58 319 0.0 0.0 0.00 0.00 0.00 80 1011.6
20260901044603 59 319 0.0 0.0 0.00 0.00 0.00 79 1011.6
20260901043055 60 319 0.0 0.0 0.00 0.00 0.00 78 1011.5
20260901041555 61 319 0.0 0.0 0.00 0.00 0.00 77 1011.2
20260901040054 61 319 0.0 0.0 0.00 0.00 0.00 76 1011.2
20260901034555 62 319 0.0 0.0 0.00 0.00 0.00 76 1010.8
20260901033053 62 319 0.0 0.0 0.00 0.00 0.00 74 1010.5
20260901031552 63 319 0.0 1.0 0.00 0.00 0.00 73 1010.6
20260901030052 64 319 0.0 1.0 0.00 0.00 0.00 72 1010.3
20260901024553 64 319 0.0 3.0 0.00 0.00 0.00 71 1010.0
20260901023051 65 319 0.0 4.0 0.00 0.00 0.00 69 1010.0
20260901021551 67 323 1.0 5.0 0.00 0.00 0.00 67 1009.7
20260901020052 68 355 0.0 4.0 0.00 0.00 0.00 64 1009.7
20260901014549 69 346 0.0 4.0 0.00 0.00 0.00 63 1009.6
20260901013058 70 21 0.0 3.0 0.00 0.00 0.00 62 1009.3
20260901011548 70 11 0.0 3.0 0.00 0.00 0.00 61 1009.4
20260901010049 71 336 0.0 8.0 0.00 0.00 0.00 60 1009.4
20260901004547 72 347 0.0 4.0 0.00 0.00 0.00 58 1009.4
20260901003047 73 344 0.0 4.0 0.00 0.00 0.00 57 1009.3
20260901001546 73 360 0.0 6.0 0.00 0.00 0.00 56 1009.3
20260901000045 74 328 0.0 3.0 0.00 0.00 0.00 55 1009.3
20260831234551 74 331 0.0 3.0 0.00 0.00 0.00 55 1009.4
20260831233047 75 265 0.0 5.0 0.00 0.00 0.00 54 1009.6
20260831231542 75 319 1.0 4.0 0.00 0.00 0.00 54 1009.7
20260831230042 75 22 0.0 5.0 0.00 0.00 0.00 54 1009.8
20260831224538 75 19 0.0 2.0 0.00 0.00 0.00 54 1010.0
20260831223049 74 49 0.0 5.0 0.00 0.00 0.00 54 1010.1
20260831221537 75 355 1.0 3.0 0.00 0.00 0.00 53 1010.5
20260831220035 74 49 0.0 2.0 0.00 0.00 0.00 54 1010.7
20260831214531 73 360 0.0 4.0 0.00 0.00 0.00 56 1010.8
20260831213026 72 11 1.0 7.0 0.00 0.00 0.00 58 1010.9
20260831211529 73 307 2.0 5.0 0.00 0.00 0.00 58 1011.2
20260831210033 72 20 0.0 4.0 0.00 0.00 0.00 58 1011.4
20260831204520 71 293 0.0 5.0 0.00 0.00 0.00 60 1011.4